Home   Weather   Vitória   Past weeks

Flag for Brazil Past Weather in Vitória, Espírito Santo, Brazil — Yesterday and Last 2 Weeks

Now
73 °F

Partly cloudy.


Feels Like: 75 °F
Forecast: 76 / 84 °F
Wind: 1 mph from Northwest

Location: Belo Horizonte Airport

Current Time: Dec 9, 2016 at 12:13:43 am

Latest Report: Dec 8, 2016 at 11:00 pm


Visibility: N/A

Pressure: 29.98 "Hg

Humidity: 74%

Dew Point: 64 °F

Location of VitóriaLocation

Past Weather in Vitória — Graph

°F

Vitória Temperature Yesterday

Maximum temperature yesterday: 84 °F (at 3:00 pm)
Minimum temperature yesterday: 66 °F (at 3:00 am)
Average temperature yesterday: 74 °F

High & Low Weather Summary for the Past Weeks

 TemperatureHumidityPressure
High90 °F (Dec 7, 5:00 pm)100% (Nov 24, 6:00 am)30.18 "Hg (Nov 24, 6:00 am)
Low63 °F (Dec 1, 6:00 am)37% (Nov 26, 5:00 pm)29.80 "Hg (Dec 4, 4:00 pm)
Average73 °F73%30.02 "Hg
* Reported Nov 23 11:00 pm — Dec 8 11:00 pm, Vitória, Weather by CustomWeather, © 2016

Note: Actual official high and low records may vary slightly from our data, if they occured in-between our weather recording intervals... More about our weather records

Advertising

Vitória Weather History for the Previous 24 Hours

Scroll right to see more
 ConditionsComfort  
Time TempWeatherWind HumidityBarometerVisibility
11:00 pm
Thu, Dec 8
73 °FPartly cloudy.1 mph74%29.98 "HgN/A
10:00 pm73 °FPartly cloudy.2 mph69%29.98 "HgN/A
9:00 pm73 °FThundershowers. Partly cloudy.5 mph69%N/AN/A
8:00 pm75 °FThundershowers. Passing clouds.1 mph69%29.95 "HgN/A
7:00 pm77 °FScattered clouds.10 mph65%29.92 "HgN/A
6:00 pm81 °FScattered clouds.13 mph62%29.89 "HgN/A
5:00 pm82 °FScattered clouds.6 mph58%29.86 "HgN/A
4:00 pm84 °FPartly sunny.8 mph51%29.89 "HgN/A
3:00 pm84 °FScattered clouds.6 mph51%29.92 "HgN/A
2:00 pm81 °FPartly sunny.8 mph58%29.95 "HgN/A
1:00 pm81 °FScattered clouds.7 mph58%29.98 "HgN/A
12:00 pm79 °FScattered clouds.8 mph61%30.01 "HgN/A
11:00 am77 °FScattered clouds.8 mph65%30.01 "HgN/A
10:00 am77 °FScattered clouds.7 mph61%30.04 "HgN/A
9:00 am72 °FSunny.3 mph78%30.04 "Hg10 mi
8:00 am72 °FSunny.2 mph69%30.04 "Hg10 mi
7:00 am68 °FSunny.No wind83%30.01 "Hg10 mi
6:00 am68 °FPassing clouds.2 mph83%30.01 "HgN/A
5:00 am68 °FClear.6 mph83%29.98 "Hg10 mi
4:00 am66 °FClear.5 mph88%29.98 "Hg10 mi
3:00 am66 °FClear.5 mph88%29.98 "Hg10 mi
2:00 am68 °FClear.3 mph78%29.98 "Hg10 mi
1:00 am68 °FClear.3 mph78%29.98 "Hg10 mi
12:00 am70 °FClear.7 mph73%30.01 "Hg10 mi
Weather by CustomWeather, © 2016

See weather overviewHow to use our weather pages